DateTimeUTC,F1_A11,F1_S11,BsB_S11,BsG_S11,BsR_S11,BbsB_S11,BbsG_S11,BbsR_S11,BaB_A11,BaG_A11,BaR_A11,T_S11,U_S11,P_S11,T1_A11
2020-06-28T00:00:00Z,00000380,20000600,,,,,,,,,,25.8,03.3,0681.0,31.1
2020-06-28T00:01:00Z,00000380,20000600,,,,,,,,,,25.8,03.3,0681.0,31.1
2020-06-28T00:02:00Z,00000380,20000600,,,,,,,,,,25.8,03.3,0681.0,31.1
2020-06-28T00:03:00Z,00000380,60000600,,,,,,,,,,25.8,03.3,0681.0,31.1
2020-06-28T00:04:00Z,00000380,40000600,0000.01,0000.15,-000.37,-000.61,-000.06,-000.18,0000.22,0000.01,-000.03,25.7,03.5,0681.9,31.1
2020-06-28T00:05:00Z,00000380,00000600,-000.09,-000.51,-000.12,0000.04,-000.01,0000.27,0000.09,-000.03,0000.01,25.6,03.5,0682.0,31.1
2020-06-28T00:06:00Z,00000380,00000600,-000.73,0000.04,0000.19,0000.65,0000.33,0000.59,-000.04,0000.17,0000.02,25.6,03.5,0682.0,31.1
2020-06-28T00:07:00Z,00000380,00000600,0000.18,-000.25,0000.17,-000.10,-000.01,0000.00,-000.15,-000.05,0000.15,25.6,03.6,0682.0,31.1
2020-06-28T00:08:00Z,00000380,00000600,0001.22,0001.06,0000.71,0000.52,0000.15,0000.08,0000.52,0000.32,0000.08,25.6,03.7,0682.0,31.1
2020-06-28T00:09:00Z,00000380,00000600,0001.09,0000.28,-000.21,-000.18,-000.04,0000.06,0000.39,0000.36,0000.25,25.6,03.8,0682.0,31.1
2020-06-28T00:10:00Z,00000380,00000600,0000.37,0000.22,0000.26,-000.45,0000.10,-000.03,-000.29,-000.14,-000.08,25.6,03.9,0682.0,31.1
2020-06-28T00:11:00Z,00000380,00000600,0000.06,0000.55,0000.50,-000.09,0000.37,0000.13,-000.03,-000.13,-000.15,25.6,03.9,0682.0,31.1
2020-06-28T00:12:00Z,00000380,00000600,0000.59,0000.39,-000.04,-000.09,0000.37,0000.05,0000.13,0000.21,0000.25,25.6,03.8,0682.0,31.1
2020-06-28T00:13:00Z,00000380,00000600,0001.13,0000.72,0000.08,-000.17,0000.03,-000.05,-000.01,-000.11,0000.08,25.6,03.8,0682.0,31.1
2020-06-28T00:14:00Z,00000380,00000600,0000.82,0001.12,0000.17,-000.36,0000.32,0000.18,0000.12,0000.08,-000.07,25.6,03.8,0681.9,31.1
2020-06-28T00:15:00Z,00000380,00000600,0000.29,0000.78,0000.23,-000.25,0000.07,-000.15,-000.07,0000.13,-000.03,25.6,03.8,0681.9,31.1
2020-06-28T00:16:00Z,00000380,00000600,0001.23,0000.53,0000.53,0000.24,0000.42,0000.44,0000.05,-000.25,-000.01,25.6,03.9,0681.9,31.1
2020-06-28T00:17:00Z,00000380,00000600,0000.60,0000.80,0000.49,0000.43,-000.21,0000.11,0000.05,0000.11,0000.11,25.6,03.8,0681.9,31.1
2020-06-28T00:18:00Z,00000380,00000600,0002.00,0000.56,0000.44,0000.35,0000.26,-000.09,0000.14,0000.24,-000.04,25.6,03.8,0681.9,31.1
2020-06-28T00:19:00Z,00000380,00000600,0001.06,0000.68,-000.16,0000.84,0000.03,0000.13,-000.09,0000.03,0000.08,25.6,03.8,0681.9,31.1
2020-06-28T00:20:00Z,00000380,00000600,0000.63,0000.38,0000.61,0000.33,0000.03,0000.21,0000.08,0000.08,0000.14,25.6,03.9,0681.9,31.1
2020-06-28T00:21:00Z,00000380,00000600,-000.58,0000.17,0000.21,0000.21,0000.29,-000.17,0000.14,0000.04,-000.02,25.6,03.9,0681.9,31.1
2020-06-28T00:22:00Z,00000380,00000600,0001.11,0000.73,0000.59,0000.69,0000.18,0000.07,0000.12,0000.10,0000.03,25.6,03.9,0681.9,31.1
2020-06-28T00:23:00Z,00000380,00000600,0001.44,0001.16,0000.25,0000.44,0000.22,0000.16,0000.10,0000.14,0000.12,25.6,03.9,0681.9,31.1
2020-06-28T00:24:00Z,00000380,00000600,0000.35,0000.95,0000.53,0000.42,-000.28,0000.11,0000.07,-000.09,0000.08,25.6,03.9,0681.9,31.1
2020-06-28T00:25:00Z,00000380,00000600,0001.20,0000.35,0000.05,0000.23,0000.26,0000.27,-000.13,0000.19,0000.04,25.6,03.9,0681.9,31.1
2020-06-28T00:26:00Z,00000380,00000600,0000.68,0000.67,-000.14,-000.02,0000.15,-000.16,-000.12,-000.20,-000.16,25.6,03.9,0681.9,31.1
2020-06-28T00:27:00Z,00000380,00000600,0000.39,0000.52,0000.43,0000.23,0000.61,0000.10,0000.13,-000.12,0000.08,25.6,03.8,0681.9,31.1
2020-06-28T00:28:00Z,00000380,00000600,0001.32,0000.70,0000.23,-000.43,0000.25,0000.14,-000.19,0000.04,-000.05,25.6,03.8,0681.9,31.1
2020-06-28T00:29:00Z,00000380,00000600,0000.78,0000.44,0000.32,-000.20,-000.10,0000.02,-000.34,-000.48,-000.33,25.6,03.7,0681.9,31.1
2020-06-28T00:30:00Z,00000380,00000600,-000.13,-000.07,0000.04,0000.13,-000.01,0000.39,-000.05,0000.01,-000.06,25.6,03.5,0681.9,31.1
2020-06-28T00:31:00Z,00000380,00000600,0000.41,0000.36,0000.40,-000.07,0000.07,0000.36,0000.07,0000.08,0000.15,25.6,03.5,0681.9,31.1
2020-06-28T00:32:00Z,00000380,00000600,0000.51,0000.70,-000.22,0000.79,0000.04,0000.03,0000.02,-000.10,0000.09,25.6,03.5,0681.9,31.1
2020-06-28T00:33:00Z,00000380,00000600,0000.08,0000.42,0000.42,0000.57,0000.40,0000.18,0000.12,0000.18,0000.00,25.6,03.6,0681.9,31.1
2020-06-28T00:34:00Z,00000380,00000600,0000.84,0000.44,-000.19,-000.11,-000.08,0000.12,0000.09,0000.14,-000.00,25.6,03.6,0681.9,31.1
2020-06-28T00:35:00Z,00000380,00000600,0000.16,0000.49,0000.13,0000.08,0000.23,0000.50,0000.10,0000.01,0000.04,25.6,03.6,0681.9,31.1
2020-06-28T00:36:00Z,00000380,00000600,0000.61,0000.70,-000.10,0000.00,0000.08,-000.01,-000.00,-000.03,-000.01,25.6,03.6,0682.0,31.1
2020-06-28T00:37:00Z,00000380,00000600,0000.69,0000.39,-000.01,-000.03,-000.08,0000.04,-000.44,-000.33,-000.10,25.7,03.6,0682.0,31.1
2020-06-28T00:38:00Z,00000380,00000600,0000.49,0000.36,-000.00,0000.15,0000.33,0000.10,0000.05,0000.13,0000.02,25.6,03.4,0682.0,31.1
2020-06-28T00:39:00Z,00000380,00000600,0001.57,0000.23,0000.87,0000.62,0000.31,-000.05,0000.00,-000.10,-000.03,25.7,03.4,0682.0,31.1
2020-06-28T00:40:00Z,00000380,00000600,0001.36,0000.33,-000.16,0000.49,0000.20,0000.49,-000.03,0000.04,0000.05,25.7,03.4,0682.0,31.1
2020-06-28T00:41:00Z,00000380,00000600,0000.60,0000.07,0000.50,0000.14,-000.24,0000.09,-000.27,-000.03,-000.19,25.7,03.4,0682.0,31.1
2020-06-28T00:42:00Z,00000380,00000600,0001.11,0000.28,0000.03,0000.24,0000.09,0000.25,0000.41,-000.08,0000.10,25.7,03.3,0682.0,31.1
2020-06-28T00:43:00Z,00000380,00000600,0000.85,0000.16,0000.33,0000.37,0000.04,-000.06,-000.11,0000.26,-000.05,25.7,03.4,0682.0,31.1
2020-06-28T00:44:00Z,00000380,00000600,-000.24,0000.31,0000.36,0001.04,-000.13,-000.15,-000.30,-000.44,-000.12,25.7,03.3,0682.0,31.1
2020-06-28T00:45:00Z,00000380,00000600,0000.17,0000.27,-000.10,-000.19,0000.08,0000.24,-000.18,-000.22,-000.11,25.7,03.2,0682.0,31.1
2020-06-28T00:46:00Z,00000380,00000600,0000.68,-000.15,-000.17,-000.24,-000.33,0000.06,-000.40,-000.34,-000.24,25.6,03.0,0681.9,31.1
2020-06-28T00:47:00Z,00000380,00000600,0000.68,0000.32,0000.15,0000.23,0000.08,-000.30,-000.20,-000.02,-000.10,25.7,02.9,0681.9,31.1
2020-06-28T00:48:00Z,00000380,00000600,-000.35,0000.13,0000.28,-000.70,0000.35,-000.10,0000.16,0000.16,0000.22,25.7,02.9,0681.9,31.1
2020-06-28T00:49:00Z,00000380,00000600,-000.17,0000.02,0000.00,-000.48,0000.45,-000.04,0000.34,0000.31,0000.19,25.6,03.0,0681.8,31.1
2020-06-28T00:50:00Z,00000380,00000600,-000.55,0000.32,-000.35,0000.79,0000.15,0000.03,0000.08,-000.08,-000.20,25.7,03.1,0681.8,31.1
2020-06-28T00:51:00Z,00000380,00000600,0000.79,0000.01,0000.39,0000.35,0000.09,0000.22,-000.31,-000.10,-000.06,25.7,03.1,0681.8,31.1
2020-06-28T00:52:00Z,00000380,00000600,0000.84,0000.39,0000.44,0000.11,0000.05,0000.25,0000.70,0000.59,0000.40,25.6,03.2,0681.8,31.1
2020-06-28T00:53:00Z,00000380,00000600,0000.92,0000.75,0000.52,-000.19,0000.40,0000.00,-000.22,-000.22,-000.09,25.6,03.1,0681.8,31.1
2020-06-28T00:54:00Z,00000380,00000600,0000.53,0000.55,0000.40,0000.64,0000.18,-000.22,-000.53,-000.35,-000.27,25.6,03.0,0681.8,31.1
2020-06-28T00:55:00Z,00000380,00000600,0000.99,0000.57,-000.16,-000.47,0000.24,0000.01,0000.48,0000.37,0000.09,25.6,03.0,0681.8,31.1
2020-06-28T00:56:00Z,00000380,00000600,0000.80,0000.06,-000.05,-000.48,-000.30,0000.05,0000.09,-000.08,0000.15,25.7,03.1,0681.8,31.1
2020-06-28T00:57:00Z,00000380,40000600,,,,,,,,,,25.7,03.2,0681.8,31.1
2020-06-28T00:58:00Z,00000380,60000600,,,,,,,,,,25.8,03.1,0680.7,31.1
2020-06-28T00:59:00Z,00000380,20000600,,,,,,,,,,25.9,03.0,0680.7,31.1
2020-06-28T01:00:00Z,00000380,20000600,,,,,,,,,,25.9,03.0,0680.7,31.1
2020-06-28T01:01:00Z,00000380,20000600,,,,,,,,,,25.9,02.8,0680.7,31.1
2020-06-28T01:02:00Z,00000380,20000600,,,,,,,,,,25.9,02.8,0680.6,31.1
2020-06-28T01:03:00Z,00000380,60000600,,,,,,,,,,25.9,02.8,0680.6,31.1
2020-06-28T01:04:00Z,00000380,40000600,0000.54,0001.05,0000.61,0001.05,0000.08,0000.21,0000.43,0000.45,0000.47,25.8,03.1,0681.6,31.1
2020-06-28T01:05:00Z,00000380,00000600,-000.61,0000.19,0000.56,0000.60,0000.21,0000.18,0000.74,0000.50,0000.39,25.7,03.7,0681.7,31.1
2020-06-28T01:06:00Z,00000380,00000600,-000.74,-000.02,0000.29,0000.43,0000.24,0000.26,-001.05,-001.08,-000.78,25.7,03.2,0681.7,31.1
2020-06-28T01:07:00Z,00000380,00000600,0001.09,0000.04,0000.42,0000.92,0000.04,-000.18,-000.18,0000.11,-000.05,25.7,02.9,0681.7,31.1
2020-06-28T01:08:00Z,00000380,00000600,0000.17,0000.12,-000.04,0000.43,0000.05,-000.46,-000.50,-000.58,-000.44,25.7,02.8,0681.6,31.1
2020-06-28T01:09:00Z,00000380,00000600,0000.12,0000.29,0000.08,-000.12,-000.21,0000.18,-000.27,-000.13,-000.14,25.7,02.5,0681.6,31.1
2020-06-28T01:10:00Z,00000380,00000600,-000.05,0000.05,0000.35,0000.84,0000.56,0000.19,-000.20,-000.48,-000.12,25.7,02.5,0681.6,31.1
2020-06-28T01:11:00Z,00000380,00000600,-000.16,-000.38,0000.77,-000.15,0000.23,0000.53,0000.70,0000.89,0000.47,25.7,02.4,0681.6,31.1
2020-06-28T01:12:00Z,00000380,00000600,0000.65,-000.02,0000.22,0000.17,-000.16,0000.22,-000.60,-000.61,-000.49,25.7,02.6,0681.5,31.1
2020-06-28T01:13:00Z,00000380,00000600,-000.41,0000.13,0000.46,-000.16,-000.17,0000.05,0001.51,0001.41,0001.05,25.7,02.7,0681.5,31.1
2020-06-28T01:14:00Z,00000380,00000600,0000.17,0000.28,0000.75,-000.97,0000.04,0000.06,-000.98,-001.00,-000.71,25.7,02.9,0681.5,31.1
2020-06-28T01:15:00Z,00000380,00000600,0000.68,-000.42,0000.01,0000.42,-000.13,-000.58,0000.72,0000.60,0000.42,25.7,02.7,0681.5,31.1
2020-06-28T01:16:00Z,00000380,00000600,-000.06,0000.40,0000.37,0000.41,0000.20,0000.45,0001.48,0001.45,0001.16,25.7,03.3,0681.5,31.1
2020-06-28T01:17:00Z,00000380,00000600,-000.00,0000.41,0000.22,-000.08,0000.08,0000.66,-001.14,-001.09,-000.72,25.7,03.3,0681.5,31.1
2020-06-28T01:18:00Z,00000380,00000600,0000.19,0000.71,-000.03,0000.55,-000.14,0000.41,-000.68,-000.68,-000.63,25.7,02.9,0681.6,31.1
2020-06-28T01:19:00Z,00000380,00000600,-000.86,0000.24,0000.57,0000.49,-000.01,0000.47,-000.78,-000.72,-000.43,25.6,02.5,0681.6,31.1
2020-06-28T01:20:00Z,00000380,00000600,0000.26,0000.31,0000.15,0000.83,0000.17,0000.19,0000.01,0000.07,-000.03,25.7,02.4,0681.6,31.1
2020-06-28T01:21:00Z,00000380,00000600,-001.11,0000.11,0000.44,0000.53,0000.21,0000.08,-000.07,-000.07,0000.02,25.6,02.4,0681.6,31.1
2020-06-28T01:22:00Z,00000380,00000600,0000.47,0000.14,0000.18,0000.97,-000.03,0000.44,-000.01,-000.01,0000.01,25.6,02.4,0681.6,31.1
2020-06-28T01:23:00Z,00000380,00000600,0001.65,0000.37,0000.49,0000.56,-000.37,0000.45,-000.16,-000.30,-000.31,25.6,02.3,0681.6,31.1
2020-06-28T01:24:00Z,00000380,00000600,-000.12,0000.09,-000.01,0000.18,-000.27,0000.25,-000.16,0000.04,-000.11,25.6,02.3,0681.6,31.1
2020-06-28T01:25:00Z,00000380,00000600,0000.71,-000.09,0000.60,0000.27,0000.04,0000.44,0000.05,0000.21,0000.21,25.6,02.3,0681.6,31.1
2020-06-28T01:26:00Z,00000380,00000600,0000.44,0000.01,0000.06,0001.00,-000.11,0000.14,0000.05,-000.21,-000.01,25.6,02.3,0681.7,31.1
2020-06-28T01:27:00Z,00000380,00000600,0000.63,0000.12,0000.05,0000.30,0000.04,0000.16,-000.22,0000.01,-000.00,25.6,02.3,0681.6,31.1
2020-06-28T01:28:00Z,00000380,00000600,0000.61,-000.02,0000.36,-000.36,0000.07,-000.22,0000.64,0000.43,0000.41,25.6,02.4,0681.6,31.1
2020-06-28T01:29:00Z,00000380,00000600,-000.24,-000.06,-000.05,0000.48,0000.03,-000.42,0000.16,0000.16,-000.00,25.6,02.6,0681.6,31.1
2020-06-28T01:30:00Z,00000380,00000600,-000.09,0000.17,0000.13,-000.26,0000.14,-000.24,-000.13,-000.29,-000.19,25.6,02.5,0681.6,31.1
2020-06-28T01:31:00Z,00000380,00000600,0000.25,0000.41,0000.17,-000.04,0000.20,0000.28,0000.08,0000.19,0000.15,25.5,02.5,0681.6,31.1
2020-06-28T01:32:00Z,00000380,00000600,-001.01,0000.32,0000.27,0000.82,0000.03,0000.01,-000.04,-000.07,0000.01,25.6,02.6,0681.6,31.1
2020-06-28T01:33:00Z,00000380,00000600,0000.75,0000.46,0000.10,-000.12,-000.03,-000.51,0000.08,0000.25,-000.05,25.6,02.5,0681.6,31.1
2020-06-28T01:34:00Z,00000380,00000600,0000.97,0000.10,0000.19,0000.50,-000.16,0000.14,-000.11,-000.27,-000.06,25.5,02.5,0681.6,31.1
2020-06-28T01:35:00Z,00000380,00000600,-000.25,0000.47,-000.20,0000.56,0000.22,-000.14,-000.10,-000.10,0000.02,25.5,02.4,0681.6,31.1
2020-06-28T01:36:00Z,00000380,00000600,0000.93,0000.21,0000.31,0000.86,-000.38,0000.10,0000.06,0000.25,-000.03,25.5,02.4,0681.6,31.1
2020-06-28T01:37:00Z,00000380,00000600,0000.55,0000.75,0000.34,-000.20,-000.06,0000.07,0000.09,-000.02,0000.05,25.5,02.4,0681.6,31.1
2020-06-28T01:38:00Z,00000380,00000600,-000.35,-000.30,0000.22,0000.03,-000.37,0000.34,0000.13,0000.06,-000.04,25.5,02.4,0681.6,31.1
2020-06-28T01:39:00Z,00000380,00000600,0000.52,0000.47,-000.05,-000.40,0000.26,-000.37,-000.13,-000.04,0000.03,25.5,02.5,0681.6,31.1
2020-06-28T01:40:00Z,00000380,00000600,0000.37,0000.26,0000.36,-000.21,-000.28,-000.25,-000.02,0000.05,-000.04,25.5,02.5,0681.6,31.1
2020-06-28T01:41:00Z,00000380,00000600,-000.01,0000.77,0000.74,-000.04,0000.03,0000.12,0000.31,0000.30,0000.32,25.5,02.6,0681.6,31.1
2020-06-28T01:42:00Z,00000380,00000600,0000.55,0000.23,0000.05,-000.41,0000.14,0000.30,-000.13,-000.35,-000.09,25.5,02.6,0681.6,31.1
2020-06-28T01:43:00Z,00000380,00000600,0001.33,0000.01,0000.32,0000.53,-000.18,-000.27,-000.13,-000.00,-000.20,25.5,02.5,0681.6,31.1
2020-06-28T01:44:00Z,00000380,00000600,0000.67,0000.60,-000.21,0000.01,-000.20,0000.27,-000.10,-000.19,0000.02,25.5,02.5,0681.6,31.1
2020-06-28T01:45:00Z,00000380,00000600,0000.13,-000.06,-000.08,-000.94,-000.10,0000.09,-000.03,0000.13,0000.03,25.5,02.4,0681.6,31.1
2020-06-28T01:46:00Z,00000380,00000600,0000.48,0000.21,-000.03,0000.34,0000.11,0000.06,-000.03,0000.03,0000.06,25.5,02.4,0681.6,31.1
2020-06-28T01:47:00Z,00000380,00000600,0000.77,0000.13,-000.16,0000.18,-000.04,-000.08,0000.11,0000.22,0000.14,25.5,02.4,0681.6,31.1
2020-06-28T01:48:00Z,00000380,00000600,0000.30,0000.13,0000.30,0000.60,0000.24,0000.28,0000.06,-000.28,-000.22,25.5,02.5,0681.6,31.1
2020-06-28T01:49:00Z,00000380,00000600,0000.03,-000.28,0000.03,0000.42,-000.19,0000.05,0000.01,0000.22,0000.06,25.5,02.4,0681.6,31.1
2020-06-28T01:50:00Z,00000380,00000600,-000.14,0000.07,0000.24,0000.26,-000.07,0000.57,0000.06,-000.03,0000.04,25.5,02.5,0681.6,31.1
2020-06-28T01:51:00Z,00000380,00000600,-000.39,0000.22,-000.12,0000.39,-000.09,-000.20,-000.06,-000.00,-000.08,25.5,02.5,0681.6,31.1
2020-06-28T01:52:00Z,00000380,00000600,0000.64,0000.05,-000.11,0000.27,-000.06,0000.02,0000.27,0000.11,0000.19,25.5,02.5,0681.6,31.1
2020-06-28T01:53:00Z,00000380,00000600,0000.02,0000.56,0000.43,0000.31,0000.03,-000.01,0000.23,0000.24,0000.23,25.5,02.7,0681.6,31.1
2020-06-28T01:54:00Z,00000380,00000600,0000.41,-000.32,0000.11,0000.56,0000.01,0000.15,0000.55,0000.54,0000.42,25.5,02.8,0681.5,31.1
2020-06-28T01:55:00Z,00000380,00000600,-000.41,0000.70,0000.08,0000.29,-000.07,-000.22,0000.47,0000.42,0000.20,25.5,03.0,0681.5,31.1
2020-06-28T01:56:00Z,00000380,00000600,0001.57,0000.31,0000.34,-000.08,0000.37,0000.03,0000.56,0000.32,0000.29,25.5,03.2,0681.5,31.1
2020-06-28T01:57:00Z,00000380,40000600,,,,,,,,,,25.6,03.3,0681.4,31.1
2020-06-28T01:58:00Z,00000380,60000600,,,,,,,,,,25.7,03.1,0680.5,31.1
2020-06-28T01:59:00Z,00000380,20000600,,,,,,,,,,25.8,03.0,0680.5,31.1
2020-06-28T02:00:00Z,00000380,20000600,,,,,,,,,,25.8,03.0,0680.5,31.1
2020-06-28T02:01:00Z,00000380,20000600,,,,,,,,,,25.8,03.0,0680.5,31.1
2020-06-28T02:02:00Z,00000380,20000600,,,,,,,,,,25.8,03.0,0680.5,31.1
2020-06-28T02:03:00Z,00000380,60000600,,,,,,,,,,25.8,03.0,0680.5,31.1
2020-06-28T02:04:00Z,00000380,40000600,0000.66,0000.42,0000.05,-000.49,0000.27,-000.17,0000.31,0000.25,0000.14,25.6,03.1,0681.5,31.1
2020-06-28T02:05:00Z,00000380,00000600,0000.43,0000.47,-000.06,-000.25,-000.00,-000.17,0000.21,0000.17,0000.16,25.6,03.2,0681.6,31.1
2020-06-28T02:06:00Z,00000380,00000600,0001.13,0000.29,0000.10,-000.46,0000.10,-000.07,-000.10,0000.01,0000.01,25.5,03.1,0681.6,31.1
2020-06-28T02:07:00Z,00000380,00000600,0001.14,0000.51,0000.09,0000.39,0000.49,0000.14,0000.28,0000.42,0000.43,25.6,03.2,0681.6,31.1
2020-06-28T02:08:00Z,00000380,00000600,0000.98,0000.33,0000.21,-000.21,0000.35,-000.10,-000.08,-000.25,-000.21,25.6,03.3,0681.6,31.1
2020-06-28T02:09:00Z,00000380,00000600,-000.09,0000.59,-000.56,-000.36,0000.49,-000.48,-000.10,0000.05,-000.02,25.5,03.2,0681.6,31.1
2020-06-28T02:10:00Z,00000380,00000600,-000.06,0000.34,-000.18,0000.16,0000.50,-000.14,-000.21,-000.18,-000.28,25.6,03.2,0681.7,31.1
2020-06-28T02:11:00Z,00000380,00000600,0001.17,0000.41,0000.04,0000.08,0000.22,0000.10,0000.13,-000.01,0000.12,25.5,03.2,0681.7,31.1
2020-06-28T02:12:00Z,00000380,00000600,0000.68,0001.04,0000.33,-000.21,0000.32,-000.47,0000.03,-000.00,0000.12,25.5,03.1,0681.7,31.1
2020-06-28T02:13:00Z,00000380,00010600,0001.33,0000.97,-000.50,0000.14,0000.39,-000.30,0000.41,0000.37,0000.19,25.5,03.1,0681.7,31.1
2020-06-28T02:14:00Z,00000380,00000600,0000.35,0000.43,0000.73,0000.56,0000.26,0000.16,-000.04,-000.02,-000.02,25.5,03.3,0681.7,31.1
2020-06-28T02:15:00Z,00000380,00000600,0001.04,0000.18,-000.17,-000.11,0000.30,-000.45,-000.12,0000.04,0000.01,25.5,03.3,0681.7,31.1
2020-06-28T02:16:00Z,00000380,00000600,0000.25,0000.52,-000.28,0000.06,0000.32,-000.06,0000.23,0000.13,0000.12,25.5,03.3,0681.7,31.1
2020-06-28T02:17:00Z,00000380,00000600,-000.54,0000.17,0000.14,-000.30,0000.67,-000.22,0000.05,0000.12,-000.05,25.5,03.3,0681.8,31.1
2020-06-28T02:18:00Z,00000380,00000600,0000.69,0000.05,0000.13,-000.21,0000.50,0000.34,0000.20,0000.03,0000.19,25.5,03.4,0681.8,31.1
2020-06-28T02:19:00Z,00000380,00000600,0000.05,0000.20,-000.25,-000.52,0000.48,-000.47,0000.21,0000.12,0000.04,25.5,03.4,0681.8,31.1
2020-06-28T02:20:00Z,00000380,00000600,0001.10,0000.26,0000.38,-000.73,0000.45,-000.10,-000.25,-000.16,-000.01,25.5,03.4,0681.8,31.1
2020-06-28T02:21:00Z,00000380,00000600,0001.38,0001.14,0000.16,0000.18,0000.29,0000.05,0000.27,0000.00,0000.23,25.5,03.4,0681.8,31.1
2020-06-28T02:22:00Z,00000380,00000600,0000.98,0000.48,-000.15,-000.01,0000.68,-000.04,-000.18,0000.12,-000.30,25.5,03.4,0681.9,31.1
2020-06-28T02:23:00Z,00000380,00000600,0001.17,0000.01,-000.75,-000.03,0000.11,0000.01,0000.10,0000.12,0000.30,25.5,03.4,0681.9,31.1
2020-06-28T02:24:00Z,00000380,00000600,0000.03,0000.81,0000.02,-000.55,0000.51,-000.05,0000.02,-000.17,-000.01,25.5,03.4,0681.9,31.1
2020-06-28T02:25:00Z,00000380,00000600,0001.05,0000.55,0000.10,-000.44,0000.28,-000.34,0000.02,0000.16,-000.11,25.5,03.3,0681.9,31.1
2020-06-28T02:26:00Z,00000380,00000600,0001.23,0001.29,-000.10,-000.08,0000.34,-000.21,0000.03,0000.04,0000.17,25.5,03.4,0681.9,31.1
2020-06-28T02:27:00Z,00000380,00000600,0001.39,0000.75,0000.11,0000.24,0000.17,-000.10,0000.37,0000.22,0000.07,25.5,03.5,0681.9,31.1
2020-06-28T02:28:00Z,00000380,00000600,0001.79,0000.56,-000.39,-000.10,0000.38,0000.24,0000.41,0000.47,0000.29,25.5,03.6,0681.9,31.1
2020-06-28T02:29:00Z,00000380,00000600,-000.37,0000.49,0000.09,-000.32,0000.09,0000.05,0000.15,0000.16,0000.16,25.5,03.8,0681.9,31.1
2020-06-28T02:30:00Z,00000380,00000600,0000.93,0000.35,0000.12,-000.61,0000.29,-000.32,0000.16,0000.00,0000.19,25.5,03.8,0681.9,31.1
2020-06-28T02:31:00Z,00000380,00000600,0000.86,0000.28,-000.04,0000.70,0000.41,0000.21,0000.27,0000.24,0000.16,25.5,03.8,0681.9,31.1
2020-06-28T02:32:00Z,00000380,00000600,0001.30,0000.32,-000.23,-000.47,0000.42,0000.07,-000.20,-000.03,-000.13,25.5,03.9,0681.9,31.1
2020-06-28T02:33:00Z,00000380,00000600,0001.12,0000.36,-000.29,-000.78,0000.67,-000.12,0000.18,0000.02,0000.27,25.5,03.8,0681.9,31.1
2020-06-28T02:34:00Z,00000380,00000600,0001.12,0000.90,-000.56,-000.02,0000.66,-000.21,-000.04,0000.09,-000.07,25.5,03.9,0681.8,31.1
2020-06-28T02:35:00Z,00000380,00000600,-000.06,0001.20,0000.19,-000.25,0000.34,-000.21,-000.30,-000.32,-000.27,25.5,03.8,0681.9,31.1
2020-06-28T02:36:00Z,00000380,00000600,0000.82,0000.48,0000.14,-000.52,0000.15,-000.42,-000.19,-000.15,-000.12,25.5,03.7,0681.9,31.1
2020-06-28T02:37:00Z,00000380,00000600,-000.52,0000.51,0000.03,0000.15,0000.21,0000.62,-000.12,-000.03,-000.08,25.5,03.6,0681.9,31.1
2020-06-28T02:38:00Z,00000380,00000600,0001.39,0000.67,0000.21,0000.98,0000.25,0000.46,0000.30,0000.04,0000.19,25.5,03.7,0681.9,31.1
2020-06-28T02:39:00Z,00000380,00000600,-000.17,0000.54,-000.05,0000.53,0000.25,-000.01,-000.06,0000.15,0000.05,25.5,03.6,0681.8,31.1
2020-06-28T02:40:00Z,00000380,00000600,0000.48,0001.25,0000.79,0000.10,-000.03,0000.41,-000.20,-000.23,-000.26,25.4,03.6,0681.8,31.1
2020-06-28T02:41:00Z,00000380,00000600,0000.01,0001.06,0000.18,-000.08,0000.18,0000.06,0000.11,0000.18,0000.16,25.4,03.6,0681.8,31.1
2020-06-28T02:42:00Z,00000380,00000600,0000.68,0000.31,0000.16,-000.27,0000.43,0000.12,-000.13,-000.19,0000.02,25.4,03.6,0681.8,31.1
2020-06-28T02:43:00Z,00000380,00000600,0000.37,0001.23,0000.16,-000.64,0000.31,0000.41,0000.10,0000.10,0000.11,25.4,03.5,0681.9,31.1
2020-06-28T02:44:00Z,00000380,00000600,0001.53,0000.75,-000.16,-000.07,0000.12,0000.24,0000.65,0000.56,0000.40,25.4,03.7,0681.9,31.1
2020-06-28T02:45:00Z,00000380,00000600,0001.82,0000.74,0000.45,-000.68,0000.63,0000.31,0000.42,0000.12,0000.09,25.4,04.0,0681.9,31.1
2020-06-28T02:46:00Z,00000380,00000600,0001.68,0000.59,-000.12,-000.01,0000.33,-000.50,0000.15,0000.36,0000.05,25.4,04.0,0681.9,31.1
2020-06-28T02:47:00Z,00000380,00000600,0002.24,0000.32,0000.55,-000.05,0000.40,0000.09,0000.08,0000.03,0000.22,25.4,04.2,0681.9,31.1
2020-06-28T02:48:00Z,00000380,00000600,0001.13,0000.77,0000.36,0000.16,0000.31,0000.16,0000.15,0000.29,0000.13,25.4,04.2,0681.9,31.1
2020-06-28T02:49:00Z,00000380,00000600,0001.32,0000.93,0000.24,-000.48,0000.57,0000.16,0000.18,-000.12,-000.03,25.4,04.2,0681.9,31.0
2020-06-28T02:50:00Z,00000380,00000600,0001.35,0000.97,0000.41,0000.45,0000.17,0000.26,-000.06,0000.08,-000.02,25.4,04.2,0681.9,31.1
2020-06-28T02:51:00Z,00000380,00000600,0001.44,0000.20,-000.04,0000.23,-000.03,0000.10,0000.06,-000.08,0000.10,25.4,04.1,0682.0,31.1
2020-06-28T02:52:00Z,00000380,00000600,0001.89,0000.91,-000.27,-000.14,-000.06,0000.04,0000.06,0000.01,-000.10,25.4,04.1,0681.9,31.0
2020-06-28T02:53:00Z,00000380,00000600,0001.15,0000.48,-000.03,-000.20,0000.01,-000.07,-000.17,0000.03,0000.23,25.4,04.2,0681.9,31.1
2020-06-28T02:54:00Z,00000380,00000600,0001.49,0000.64,-000.37,-000.51,0000.15,-000.05,0000.02,0000.11,-000.06,25.3,04.2,0681.9,31.0
2020-06-28T02:55:00Z,00000380,00000600,0000.40,0000.25,0000.05,-000.78,0000.27,0000.30,-000.26,-000.30,-000.06,25.3,04.0,0681.9,31.0
2020-06-28T02:56:00Z,00000380,00000600,0001.43,0000.52,0000.09,-000.88,0000.40,0000.55,0000.01,0000.09,-000.12,25.3,04.0,0681.9,31.1
2020-06-28T02:57:00Z,00000380,40000600,,,,,,,,,,25.4,04.1,0681.9,31.1
2020-06-28T02:58:00Z,00000380,60000600,,,,,,,,,,25.4,03.8,0680.8,31.0
2020-06-28T02:59:00Z,00000380,20000600,,,,,,,,,,25.5,03.7,0680.8,31.0
2020-06-28T03:00:00Z,00000380,20000600,,,,,,,,,,25.6,03.7,0680.8,31.0
2020-06-28T03:01:00Z,00000380,20000600,,,,,,,,,,25.6,03.7,0680.8,31.1
2020-06-28T03:02:00Z,00000380,20000600,,,,,,,,,,25.6,03.7,0680.8,31.1
2020-06-28T03:03:00Z,00000380,60000600,,,,,,,,,,25.6,03.7,0680.8,31.0
2020-06-28T03:04:00Z,00000380,40000600,0000.76,0000.59,0000.41,0000.15,0000.23,-000.26,-000.58,-000.65,-000.36,25.4,03.8,0681.8,31.1
2020-06-28T03:05:00Z,00000380,00000600,0001.24,0000.62,0000.04,0000.18,0000.49,0000.29,-000.06,0000.01,-000.02,25.3,03.4,0681.9,31.0
2020-06-28T03:06:00Z,00000380,00000600,0002.99,0001.28,-000.05,0000.56,0000.60,0000.11,-000.50,-000.46,-000.23,25.3,03.4,0681.9,31.0
2020-06-28T03:07:00Z,00000380,00000600,0000.95,0000.79,-000.05,-000.02,-000.21,0000.07,-000.52,-000.37,-000.49,25.3,03.1,0681.9,31.0
2020-06-28T03:08:00Z,00000380,00000600,0001.18,0000.91,-000.06,0000.26,0000.26,0000.08,-000.04,-000.21,0000.03,25.3,03.0,0681.9,31.1
2020-06-28T03:09:00Z,00000380,00000600,0001.29,0000.81,0000.05,0000.08,0000.09,0000.17,-000.56,-000.57,-000.59,25.3,02.8,0681.9,31.0
2020-06-28T03:10:00Z,00000380,00000600,0000.68,0000.53,-000.03,0000.35,0000.22,-000.06,-000.03,0000.22,0000.16,25.3,02.8,0681.9,31.1